sat.trackr.live / text

‹ back to catalog

STARLINK-34546

NORAD 64718 · 2025-142Y

PAYLOAD ACTIVE UNKNOWN

§ Identity

Operator
Country
US
Launch date
2025-06-28
Launch site
AFWTR
Launch vehicle
Mass (kg)
RCS (m²)

Purposes: comms

External: N2YO · Heavens-Above · Gunter

§ Orbital elements

Epoch: 2026-05-25T04:30:20.679840Z

Period
96.11 min
Inclination
70.0002°
Eccentricity
0.0003538
Mean motion
14.98335852 rev/d
Perigee alt
569.6 km
Apogee alt
574.5 km
Semi-major
6,950.2 km
B*
2.1785e-4
RAAN
121.4081°
Arg perigee
265.3811°
Mean anomaly
94.6944°
Rev number
5,111

§ Raw data

STARLINK-345461 64718U 25142Y   26145.18773935  .00002508  00000+0  21785-3 0  99912 64718  70.0002 121.4081 0003538 265.3811  94.6944 14.98335852 51111

JSON: /api/v1/satellites/64718 · /tle

For live sub-satellite position, see the globe view (requires WebGL).

§ Visibility from observer

Set your observer location to see the next 7 days of passes ≥ 10°. The values pass through the URL so the page stays shareable.

No JS? Fill the form by hand. The geolocation button needs JavaScript.